Regional Weather Roundup
Issued by NWS Upton, NY

Current Version | Previous Version | Text Only | Print | Product List | Glossary On
Versions: 1 2 3 4 5 6 7 8 9 10 11 12 13 14 15 16 17 18 19 20 21 22 23 24 25 26 27
000
ASUS41 KOKX 270509
RWROKX

REGIONAL WEATHER ROUNDUP
NATIONAL WEATHER SERVICE NEW YORK NY
100 AM EDT TUE JUN 27 2017

NOTE: "FAIR" INDICATES FEW OR NO CLOUDS BELOW 12,000 FEET WITH NO
SIGNIFICANT WEATHER AND/OR OBSTRUCTIONS TO VISIBILITY.

NYZ071-072-176-178-NJZ106-104-270600-
NEW YORK CITY METRO AREA

CITY           SKY/WX    TMP DP  RH WIND       PRES   REMARKS
Central Park   CLEAR     72  48  42 CALM      30.01S
Bronx Bot Gard   N/A     66  48  52 E2        30.00F
LaGuardia APRT CLEAR     73  51  46 SW6       29.97F
Kennedy INTL   PTCLDY    68  56  65 S8        29.99S
Breezy Point     N/A     64 N/A N/A SW8         N/A
Newark/Liberty MOCLDY    69  50  50 SW6       29.98S
Teterboro      PTCLDY    68  49  50 CALM      29.97F
$$

NYZ177-179-078>081-270600-
LONG ISLAND NEW YORK

CITY           SKY/WX    TMP DP  RH WIND       PRES   REMARKS
Jones Beach      N/A     64 N/A N/A SW3         N/A
Matinecock PT  NOT AVBL
Farmingdale    NOT AVBL
MacArthur/ISP  CLEAR     66  61  84 CALM      29.99S
Shirley        CLEAR     66  64  93 S5        30.00S
Mt Sinai Harb    N/A    N/A N/A N/A S6          N/A
Westhampton    CLEAR     66  62  87 S5        30.01F
East Hampton   FAIR      64  61  92 SW3       30.00F
Montauk          N/A     66  63  90 SW6       30.01F
$$

NYZ052-065-067-270600-
HUDSON VALLEY

CITY           SKY/WX    TMP DP  RH WIND       PRES   REMARKS
White Plains   CLEAR     62  59  90 CALM      29.98F
Larchmont Harb   N/A     64 N/A N/A NW1         N/A
Croton O-T Hud   N/A     63 N/A N/A E1          N/A
Newburgh       PTCLDY    61  54  77 NW9       30.01R
Montgomery     CLOUDY    65  50  58 N10G20    30.01R
Poughkeepsie   MOCLDY    61  53  75 N10       29.99R
Albany         LGT RAIN  58  55  90 E6        30.01F
$$

NJZ001-105-106-008-010-013-015-019>022-104-270600-
NEW JERSEY

CITY           SKY/WX    TMP DP  RH WIND       PRES   REMARKS
Newark/Liberty MOCLDY    69  50  50 SW6       29.98S
Teterboro      PTCLDY    68  49  50 CALM      29.97F
Caldwell       MOCLDY    63  52  67 CALM      29.99F
Somerville     MOCLDY    60  56  86 NW5G17    29.99R
Linden         MOCLDY    68  49  49 CALM      29.98F
Perth Amboy      N/A     68 N/A N/A SW7         N/A
Sussex         CLOUDY    64  51  62 VRB3      30.03R
Andover          N/A     63  51  65 NE5       30.02R
Trenton        MOCLDY    68  51  54 CALM      29.99S
Millville      CLEAR     60  60 100 CALM      29.99F
Atlantic City  CLEAR     67  62  84 CALM      30.00F
Wrightstown    CLEAR     61  53  76 CALM      30.01S
Toms River     PTCLDY    56  51  84 CALM      30.00F
Belmar         CLEAR     64  51  62 S5        30.00F
$$

PAZ047>061-062-071-270600-
EASTERN PENNSYLVANIA

CITY           SKY/WX    TMP DP  RH WIND       PRES   REMARKS
Philadelphia   PTCLDY    68  57  68 S5        29.98F
Allentown      LGT RAIN  63  56  78 CALM      30.02R
Scranton       MOCLDY    58  55  90 VRB3      30.02F
$$

CTZ002-004>006-009-010-012-RIZ004-006-007-MAZ004-011-015-270600-
SOUTHERN NEW ENGLAND
 IN CT

CITY           SKY/WX    TMP DP  RH WIND       PRES   REMARKS
Bradley INTL   CLEAR     59  55  87 N8        30.00R
Hartford       CLEAR     62  55  77 CALM      29.98F
Danbury        CLEAR     59  56  89 CALM      30.00F
Wtrbury/Oxford CLEAR     57  50  77 CALM      30.00F
Bridgeport     CLEAR     67  61  81 W3        29.98F
Meriden        CLEAR     58  54  86 CALM      29.99S
New Haven      CLEAR     61  58  90 CALM      29.99F
Chester        FAIR      61  59  94 CALM      30.00S
Groton         CLEAR     61  57  87 CALM      30.00S
Wilimantic     CLEAR     60  56  86 N5        30.00S

 IN RI

CITY           SKY/WX    TMP DP  RH WIND       PRES   REMARKS
Providence     CLEAR     62  58  86 S3        30.01S
Block Island   CLEAR     65  60  84 SW10      30.01F
Westerly       CLEAR     65  59  81 CALM      30.01S
 IN MA

CITY           SKY/WX    TMP DP  RH WIND       PRES   REMARKS
Boston         PTCLDY    62  53  72 S6        29.99F
Worcester      CLEAR     58  51  78 CALM      30.01S
Westfield      CLEAR     58  56  93 CALM        N/A
Provincetown   PTCLDY    62  57  83 W7        30.02R
Nantucket        N/A     60  60 100 SW6       30.02S
$$

ANZ330-335-338-340-345-350-353-355-270600-
COASTAL MARINE OBSERVATIONS


STATION/POSITION TIME  SKY/WX   TEMP    WIND        PRES    VSBY  WAVE
                                AIR SEA DIR/SP/G                  HT/PER
                 (UTC)          (F)     (DEG/KT/KT) (MB)    (MI)  (FT/S)
NY HARB ENTRANCE 0350            68 67  210/ 10/ 12 1015.3          2/ 7
20 S FIRE ISLAND 0450            70 70  230/ 14/ 16 1015.1          3/ 4
GREAT SOUTH BAY  0415            70 76  230/ 10/ 14   N/A
23 SSW MONTAUK P 0350            67 66              1016.3          3/ 4
15 E BARNEGAT LI 0430               65                N/A           2/ 4
HUDSON CANYON    0350            69 68  170/  6/  8 1016.2          2/ 8
KINGS POINT      0430            70 65  180/  4/  5 1015.2
EXECUTION ROCKS  0445            66     260/  2/  4   N/A
CENTRAL LI SOUND 0415            69     210/ 14/ 16   N/A           2
EASTERN LI SOUND NOT AVBL
ROBBINS REEF     0430                   240/ 12/ 15 1015.7
$$


>>>>>>>>>>>>>>>>>>>>>>>>>>>> KEY <<<<<<<<<<<<<<<<<<<<<<<<<<<
>                                                          <
>     SKY/WX - Sky Condition/Present Weather               <
>     TMP    - Temperature in Fahrenheit                   <
>     DP     - Dew Point in Fahrenheit                     <
>     RH     - Relative Humidity in Percent                <
>     WIND   - Direction (from) and Speed in MPH           <
>     PRES   - Mean Sea Level Pressure (inches of Hg)      <
>     WCI    - Wind Chill Index                            <
>     VSB    - VISIBILITY IN MILES                         <
>     HX     - HEAT INDEX                                  <
>     TC     - TEMPERATURE IN CELSIUS                      <
>     VRB    - VARIABLE WIND DIRECTION                     <
>                                                          <
>>>>>>>>>>>>>>>>>>>>>>>>>>>> KEY <<<<<<<<<<<<<<<<<<<<<<<<<<<




USA.gov is the U.S. government's official web portal to all federal, state and local government web resources and services.